Change the Weather History Date:

Thursday, March 15, 2012

  Actual Average Record
Temperature  
Mean Temperature 72 °F 48 °F  
Max Temperature 81 °F 60 °F 85 °F (1921)
Min Temperature 62 °F 37 °F 16 °F (1993)
Degree Days  
Heating Degree Days 0 17  
Month to date heating degree days 154 288  
Since 1 July heating degree days 2764 3486  
Cooling Degree Days 7 0  
Month to date cooling degree days 10 0  
Year to date cooling degree days 10 0  
Growing Degree Days 22 (Base 50)    
Moisture  
Dew Point 59 °F    
Average Humidity 73    
Maximum Humidity 87    
Minimum Humidity 58    
Precipitation  
Precipitation 0.77 in 0.14 in 2.25 in (1922)
Month to date precipitation 3.16 2.04  
Year to date precipitation 9.71 9.61  
Snow  
Snow 0.00 in 0.00 in 1.50 in (1937)
Month to date snowfall 0.0 0.5  
Since 1 July snowfall 1.4 8.3  
Snow Depth 0.00 in    
Sea Level Pressure  
Sea Level Pressure 30.17 in    
Wind  
Wind Speed 7 mph (SSW)    
Max Wind Speed 35 mph    
Max Gust Speed 47 mph    
Visibility 8 miles    
Events Rain , Thunderstorm    
T = Trace of Precipitation, MM = Missing Value Source: NWS Daily Summary

Daily Weather History Graph

Daily Weather History Graph

Search for Another Location

Airport or City:

Trip Planner

Search our weather history database for the weather conditions in past years. The results will help you decide how hot, cold, wet, or windy it might be!

Date:

Astronomy

Mar. 15, 2012 Rise Set
Actual Time 6:55 AM CDT 6:53 PM CDT
Civil Twilight 6:30 AM CDT 7:19 PM CDT
Nautical Twilight 5:59 AM CDT 7:49 PM CDT
Astronomical Twilight 5:29 AM CDT 8:20 PM CDT
Moon 2:14 AM CDT (3/15) 12:18 PM CDT (3/15)
Length of Visible Light 12h 49m
Length of Day
11h 57m
Last Quarter, 43% of the Moon is Illuminated
Mar 15
Last Quarter
Mar 22
New
Mar 30
First Quarter
Apr 6
Full
Apr 13
Last Quarter

Hourly Weather History & Observations

Time (CDT) Temp. Heat Index Dew Point Humidity Pressure Visibility Wind Dir Wind Speed Gust Speed Precip Events Conditions
12:53 AM 66.0 °F - 57.9 °F 75% 30.14 in 10.0 mi SSW 4.6 mph - N/A   Clear
1:53 AM 66.0 °F - 57.9 °F 75% 30.15 in 10.0 mi SSW 5.8 mph - N/A   Partly Cloudy
2:53 AM 64.0 °F - 57.9 °F 80% 30.15 in 10.0 mi SSW 3.5 mph - N/A   Clear
3:53 AM 64.0 °F - 57.9 °F 80% 30.15 in 10.0 mi South 4.6 mph - N/A   Clear
4:53 AM 64.0 °F - 59.0 °F 84% 30.17 in 10.0 mi SSW 4.6 mph - N/A   Partly Cloudy
5:53 AM 64.9 °F - 59.0 °F 81% 30.17 in 10.0 mi SSW 5.8 mph - N/A   Clear
6:53 AM 64.0 °F - 59.0 °F 84% 30.19 in 10.0 mi SSW 3.5 mph - N/A   Clear
7:53 AM 64.9 °F - 60.1 °F 84% 30.22 in 10.0 mi Calm Calm - N/A   Clear
8:53 AM 68.0 °F - 61.0 °F 78% 30.22 in 10.0 mi WSW 5.8 mph - N/A   Clear
9:53 AM 73.9 °F - 63.0 °F 68% 30.22 in 10.0 mi WSW 8.1 mph 17.3 mph N/A   Clear
10:53 AM 75.0 °F - 63.0 °F 66% 30.22 in 10.0 mi SW 10.4 mph - N/A   Clear
11:53 AM 79.0 °F - 63.0 °F 58% 30.19 in 10.0 mi SSW 9.2 mph - N/A   Clear
12:53 PM 81.0 °F 82.5 °F 64.0 °F 56% 30.17 in 10.0 mi SW 12.7 mph - N/A   Mostly Cloudy
1:53 PM 75.0 °F - 64.0 °F 69% 30.14 in 10.0 mi West 6.9 mph - 0.01 in Rain Light Rain
2:20 PM 75.2 °F - 64.4 °F 69% 30.16 in 10.0 mi West 5.8 mph - 0.00 in Thunderstorm Thunderstorm
2:37 PM 73.4 °F - 62.6 °F 69% 30.19 in 0.8 mi West 34.5 mph 47.2 mph 0.17 in Thunderstorm Unknown
2:44 PM 66.2 °F - 53.6 °F 64% 30.14 in 0.2 mi NNW 11.5 mph 47.2 mph 0.38 in Thunderstorm Unknown
2:49 PM 66.2 °F - 53.6 °F 64% 30.12 in 1.5 mi NW 9.2 mph 20.7 mph 0.39 in Thunderstorm Unknown
2:51 PM 66.2 °F - 53.6 °F 64% 30.11 in 4.0 mi NNW 9.2 mph - 0.39 in Thunderstorm Unknown
2:53 PM 66.9 °F - 53.1 °F 61% 30.11 in 7.0 mi NW 8.1 mph - 0.39 in Thunderstorm Thunderstorm
3:34 PM 66.2 °F - 59.0 °F 78% 30.15 in 10.0 mi ESE 5.8 mph - N/A Thunderstorm Clear
3:53 PM 69.1 °F - 57.0 °F 65% 30.16 in 10.0 mi SSE 9.2 mph - N/A Thunderstorm Mostly Cloudy
4:18 PM 66.2 °F - 59.0 °F 78% 30.20 in 2.0 mi WNW 11.5 mph 18.4 mph 0.08 in Thunderstorm Unknown
4:34 PM 62.6 °F - 57.2 °F 82% 30.24 in 4.0 mi South 17.3 mph 25.3 mph 0.18 in Thunderstorm Unknown
4:53 PM 64.0 °F - 57.9 °F 80% 30.21 in 4.0 mi SSW 10.4 mph - 0.24 in Thunderstorm Unknown
5:16 PM 62.6 °F - 59.0 °F 88% 30.18 in 10.0 mi SE 5.8 mph - 0.03 in   Overcast
5:38 PM 62.6 °F - 59.0 °F 88% 30.16 in 10.0 mi SE 5.8 mph - 0.05 in Thunderstorm Overcast
5:53 PM 63.0 °F - 59.0 °F 87% 30.16 in 3.0 mi SSE 6.9 mph - 0.12 in Thunderstorm Overcast
6:00 PM 62.6 °F - 57.2 °F 82% 30.17 in 2.5 mi South 8.1 mph - 0.01 in Thunderstorm Unknown
6:08 PM 62.6 °F - 59.0 °F 88% 30.17 in 10.0 mi South 8.1 mph - 0.01 in Thunderstorm Thunderstorm
6:53 PM 63.0 °F - 59.0 °F 87% 30.16 in 10.0 mi SE 5.8 mph - 0.01 in   Mostly Cloudy
7:53 PM 63.0 °F - 57.9 °F 84% 30.15 in 10.0 mi South 8.1 mph - N/A   Partly Cloudy
8:53 PM 63.0 °F - 57.0 °F 81% 30.14 in 10.0 mi South 6.9 mph - N/A   Clear
9:53 PM 63.0 °F - 57.0 °F 81% 30.16 in 10.0 mi South 6.9 mph - N/A   Scattered Clouds
10:53 PM 63.0 °F - 57.0 °F 81% 30.16 in 10.0 mi South 8.1 mph - N/A   Partly Cloudy
11:53 PM 62.1 °F - 55.9 °F 80% 30.13 in 10.0 mi South 8.1 mph - N/A   Clear